DELTA 1 DEB, 7890

Orbit data source: Space-Track

DELTA 1 DEB, 7890 is space debris in SSO originally from a launch on Sun, 23 Jul 1972 UTC launched from the Air Force Western Test Range (AFWTR). Debris objects in space refer to the collection of defunct objects orbiting the Earth. Examples of debris include non-operational satellites, rocket bodies, and fragments generated from explosions, collisions, or faulty payload assembly.

Loading next visibility...
Identifier
7890, 1972-058BG
Orbit
SSO
Country
Flag of USUS
Related business
Manufacturer
Unknown
Mission
Spacecraft
Bus & Motor
Unknown
Mass
Unknown
Launch date (UTC)
1972-07-23 (53 years ago)
Launch vehicle
Unknown
Launch site
Air Force Western Test Range (AFWTR)
Object type
Payload
Rocket body
Debris
Shape & HBR
Unknown shape, 0.2 m
Radar Cross Section
Small (<0.1 m²)

Expand to show TLE details & history
Last TLE update: 19 hours ago

TLE from 19 hours ago
0 DELTA 1 DEB
1 07890U 72058BG  25293.75024416  .00018828  00000-0  20374-2 0  9991
2 07890  98.8378  12.4230 0105848  74.0370 287.2473 14.84249019604856
Epoch: 2025-10-20T18:00Z
TLE epoch observation values (Epoch: 2025-10-20T18:00:21.095Z)
Latitude
0.00004°
Longitude
72.88702°
Altitude
597.706 km
Speed
7.572 km/s
True Right ascension
00h 49m 41s
True Declination
0° 00' 00"
Sunlit
Object was in full shadow at epoch
Visualization orbit readout
Latitude
Unknown
Longitude
Unknown
Altitude
Unknown
Speed
Unknown
Apparent Right ascension
Unknown
Apparent Declination
Unknown
Sunlit
N/A
Visualization observer readout
Local Sidereal Time
07:54:45
Azimuth
Unknown
Elevation
Unknown
Doppler factor
Unknown
Orbital elements
Apogee altitude
687.023 km
Perigee altitude
539.023 km
Semi-major axis
6,991.16 km
Eccentricity
0.01058
Inclination
98.8378°
RAAN
12.423°
Arg. of periapsis
74.037°
True anomaly
286.08443°
Mean anomaly
287.2473°
Eccentric anomaly
286.66631°
Mean motion
3.71295 °/min
Orbital period
96.96 mins
BSTAR
0.0020374
Loading maneuver chart data...
Computing Atmospheric mass density...

Documentation

Showing up to 5 results
|